IRIDIUM 33 DEB, 46435

Orbit data source: Space-Track

IRIDIUM 33 DEB, 46435 is space debris in LEO originally from a launch on Sun, 14 Sep 1997 UTC launched from the Tyuratam Missile And Space Complex (TTMTR). The debris from Iridium 33, an American commercial communications satellite, has been tracked extensively since its accidental collision with the defunct Russian satellite Cosmos 2251 in 2009. This event, occurring at high speed in low Earth orbit (LEO), generated thousands of pieces of space debris, significantly increasing the risk of further collisions. The Iridium 33 debris cloud has impacted space traffic management and orbital debris mitigation strategies, making it a subject of ongoing study in space situational awareness.

Loading next visibility...
Identifier
46435, 1997-051ABN
Orbit
LEO
Country
Flag of USUS
Related business
Manufacturer
Unknown
Mission
Spacecraft
Bus & Motor
Unknown
Mass
Unknown
Launch date (UTC)
1997-09-14 (28 years ago)
Launch vehicle
Unknown
Launch site
Tyuratam Missile And Space Complex (TTMTR)
Object type
Payload
Rocket body
Debris
Shape & HBR
Unknown shape, 0.1 m
Radar Cross Section
Small (<0.1 m²)

Expand to show TLE details & history
Last TLE update: 1 month ago

TLE from 1 month ago
0 IRIDIUM 33 DEB
1 46435U 97051ABN 26035.13540543  .00025972  00000-0  70928-2 0  9998
2 46435  86.2792 170.9115 0198272 102.1484  74.9261 14.36167469 86810
Epoch: 2026-02-04T03:14Z
TLE epoch observation values (Epoch: 2026-02-04T03:14:59.029Z)
Latitude
0.60044°
Longitude
167.82037°
Altitude
739.935 km
Speed
7.503 km/s
True Right ascension
23h 23m 29s
True Declination
0° 35' 49"
Sunlit
Object was in daylight at epoch
Visualization orbit readout
Latitude
Unknown
Longitude
Unknown
Altitude
Unknown
Speed
Unknown
Apparent Right ascension
Unknown
Apparent Declination
Unknown
Sunlit
N/A
Visualization observer readout
Local Sidereal Time
20:47:39
Azimuth
Unknown
Elevation
Unknown
Doppler factor
Unknown
Orbital elements
Apogee altitude
909.843 km
Perigee altitude
626.461 km
Semi-major axis
7,146.289 km
Eccentricity
0.01983
Inclination
86.2792°
RAAN
170.9115°
Arg. of periapsis
102.1484°
True anomaly
77.13363°
Mean anomaly
74.9261°
Eccentric anomaly
76.02851°
Mean motion
3.59271 °/min
Orbital period
100.2 mins
BSTAR
0.0070928
Loading maneuver chart data...
Computing Atmospheric mass density...

Documentation

Showing up to 5 results
|